Theta_e
321 321 321 321 321 322 321 322 322 322 323 323 323 323 323 323 323 323 323 323 323 323 323 324 325 325 325 326 326 325 321 302 301 300 301 303 310 326 330 338 338 334 325 304 303 304 301 300 303 300 301 300 301 301 301 304 300 301 295 288 288 287 287 289 291 290 292 294 294 293 291 295 294 294 296 296 296 294 294 294 296 296 295 298 295 297 298 300
320 320 321 321 321 321 321 321 321 322 322 323 323 323 323 323 323 323 323 323 323 323 323 324 324 324 325 325 325 324 310 304 302 300 303 314 336 332 339 336 336 331 317 305 302 298 300 299 300 298 301 300 301 301 302 302 303 294 289 289 290 286 292 293 291 292 292 294 293 292 290 293 295 295 297 296 294 292 295 297 296 297 298 299 296 297 299 301
320 320 320 320 321 321 321 321 321 322 322 322 322 323 322 322 322 323 323 323 322 322 323 323 324 324 325 325 324 323 312 303 296 297 304 326 334 334 339 335 331 328 307 304 300 299 300 298 298 299 297 297 296 300 300 300 303 295 293 290 288 291 291 291 291 293 293 295 296 295 294 292 293 294 295 296 295 291 294 297 297 295 299 300 298 298 298 299
320 320 320 320 320 320 320 321 321 321 322 322 322 322 322 322 322 323 323 322 322 322 322 323 324 324 324 325 326 314 301 298 295 298 301 322 329 336 340 334 331 314 302 301 300 298 298 298 296 298 298 297 293 298 299 299 299 296 295 291 293 291 292 295 292 294 293 293 293 293 291 292 294 292 294 292 295 296 297 299 299 300 300 300 298 297 297 298
320 320 320 320 320 320 320 320 321 321 321 321 322 322 321 322 322 323 323 322 323 323 323 322 323 324 324 325 323 301 300 293 293 299 301 326 338 338 338 335 326 302 303 299 301 298 299 298 297 295 295 294 294 296 297 297 297 296 296 296 294 290 293 295 293 292 293 290 291 290 292 297 292 291 292 294 295 297 300 301 299 300 301 300 299 297 297 297
320 320 320 320 319 320 319 320 320 320 321 321 321 322 322 322 322 322 322 322 322 322 323 323 323 323 324 324 306 302 297 288 301 302 335 336 338 340 337 330 319 302 303 300 298 298 302 299 298 298 294 294 293 294 292 296 298 295 294 295 296 293 295 294 293 291 292 291 290 292 295 293 294 296 290 294 296 301 304 302 302 300 300 300 297 297 296 297
320 320 321 319 319 319 319 319 320 320 321 321 321 321 322 322 322 322 322 322 322 323 323 323 322 323 324 318 297 298 297 295 295 302 334 337 338 336 330 326 317 303 302 301 299 301 294 296 297 292 290 291 290 292 291 294 296 296 294 290 295 295 296 295 298 289 289 290 295 293 293 295 296 295 292 294 297 301 303 303 302 301 297 295 296 297 298 298
321 321 321 319 318 318 319 319 319 320 320 321 321 321 322 322 322 322 321 322 321 322 323 322 322 323 322 300 304 294 294 297 299 308 332 334 327 325 316 303 303 302 302 301 300 296 295 296 297 292 293 293 291 293 293 294 295 295 294 292 294 293 294 295 294 293 293 293 295 293 294 297 298 296 292 294 297 299 301 302 299 298 296 294 294 297 296 297
321 321 320 320 319 318 319 319 319 319 320 320 321 321 322 322 321 321 322 321 322 321 322 322 321 322 321 298 295 293 293 299 297 306 322 316 312 308 308 308 303 303 298 297 299 298 300 296 295 295 294 291 291 293 291 293 292 294 297 293 291 292 292 293 292 291 291 293 293 294 295 297 296 293 293 297 298 300 301 300 298 296 295 295 296 297 297 296
322 321 320 320 320 319 320 319 319 319 320 320 321 321 321 321 321 321 321 322 321 321 321 322 322 321 304 299 296 293 299 300 306 314 313 311 306 306 304 303 303 300 301 297 296 297 299 293 300 296 292 294 292 293 289 292 292 291 292 292 293 294 292 292 293 293 291 290 289 294 294 295 293 293 293 295 297 298 297 296 294 293 294 296 295 296 296 295
321 321 320 320 319 320 319 319 318 319 320 320 320 320 321 321 321 321 321 321 321 321 321 321 321 313 301 298 295 294 301 304 306 310 309 307 305 305 304 302 301 302 299 295 298 298 297 294 295 296 298 294 292 292 291 292 290 290 292 290 291 290 290 289 288 290 290 294 290 294 294 294 291 291 294 298 293 293 294 295 295 293 294 295 295 294 295 294
321 321 321 320 320 319 319 318 318 319 319 320 320 320 320 321 321 321 321 321 321 321 321 320 320 308 297 296 296 297 301 303 309 306 308 306 303 302 300 301 301 302 300 297 297 298 296 295 297 295 292 294 292 289 290 291 292 289 290 291 289 289 292 294 291 293 290 291 288 291 290 289 290 289 297 298 296 295 294 295 295 295 295 295 295 294 294 295
321 321 320 321 319 318 318 318 318 318 319 319 319 320 320 320 320 320 320 320 321 320 321 320 315 311 298 293 296 301 300 305 306 302 301 299 299 298 298 299 299 297 300 298 296 297 295 297 297 296 294 293 288 291 291 291 289 291 288 287 290 289 289 293 291 286 289 290 287 290 287 285 290 295 297 297 295 292 291 294 295 296 295 294 294 294 294 294
321 321 321 319 318 318 317 318 318 319 319 319 319 320 320 320 320 320 320 320 321 321 321 319 309 301 294 291 294 302 300 303 304 304 302 302 301 302 300 299 298 297 299 298 297 296 296 296 298 296 294 295 293 295 293 287 287 291 287 287 286 286 287 290 289 288 289 289 288 290 287 287 291 294 296 296 293 292 293 294 294 294 294 294 294 294 295 296
321 320 319 319 318 317 317 318 318 319 319 319 320 320 320 319 320 320 321 320 320 320 319 313 304 296 291 296 299 303 313 301 302 302 303 301 300 301 300 300 298 295 296 299 299 296 296 297 297 296 293 293 293 293 289 283 281 283 287 284 281 285 285 289 290 288 290 288 287 290 286 289 292 294 296 292 289 290 291 292 294 294 295 294 294 295 295 297
321 319 319 318 318 318 317 317 318 318 319 319 319 319 319 320 319 319 320 320 320 322 315 303 300 295 292 294 300 317 302 302 300 300 300 302 301 301 299 297 296 296 296 296 297 297 294 297 294 291 295 292 291 284 282 285 284 280 286 284 286 283 284 286 292 287 290 289 288 291 289 286 288 291 293 291 291 290 291 293 294 295 295 295 295 296 296 297
320 319 319 319 318 318 318 318 318 319 319 319 319 319 319 318 319 318 320 319 315 315 307 298 299 299 293 299 301 296 296 300 301 301 301 300 300 298 299 298 297 295 295 296 296 297 293 297 291 292 286 289 285 285 286 282 283 285 283 283 283 285 285 284 287 293 286 290 287 288 286 289 292 292 293 294 294 291 291 293 294 295 296 296 297 296 296 297
319 319 319 319 319 319 319 319 318 319 319 319 318 319 315 318 319 317 314 311 311 308 302 303 299 296 295 297 296 298 298 298 301 298 298 297 297 298 295 294 292 294 295 294 296 295 293 293 289 289 286 287 286 286 283 282 285 284 283 282 284 281 283 286 285 287 286 288 286 284 286 287 290 292 292 294 295 293 293 294 295 295 295 296 296 296 296 297
320 320 320 320 320 320 319 319 319 319 319 319 319 315 315 315 300 302 302 299 297 295 292 293 292 290 289 296 295 292 301 302 299 300 300 299 297 294 296 293 295 297 292 291 292 292 288 289 289 288 287 287 287 288 288 289 288 286 285 285 282 283 283 282 287 289 288 288 286 285 287 289 290 291 292 293 294 293 294 295 295 295 295 296 295 296 296 297
321 320 320 320 321 320 320 319 319 319 319 316 308 299 297 296 290 295 294 298 296 296 296 293 297 292 295 296 296 298 299 299 300 298 300 301 300 297 294 293 292 291 290 291 290 290 291 287 286 285 289 290 291 289 290 291 287 285 285 284 284 284 285 286 288 289 286 286 287 289 290 290 290 290 292 293 294 293 293 293 295 296 296 296 296 297 297 297
321 321 321 321 321 320 319 319 319 319 319 310 299 295 296 292 290 289 291 294 298 295 295 296 297 298 299 297 295 298 298 296 297 298 301 302 297 299 295 293 291 290 288 287 290 289 290 286 285 290 291 292 289 287 287 287 286 285 285 283 285 284 285 289 289 290 285 286 283 285 288 289 290 291 292 294 293 292 293 294 294 295 296 297 297 297 298 298
321 321 321 320 320 320 320 320 319 319 316 299 297 294 292 293 295 295 294 293 295 295 295 298 295 295 298 300 297 297 297 295 294 298 301 300 297 297 293 292 286 291 286 287 288 286 286 284 288 290 290 283 281 285 284 286 286 285 285 285 282 284 285 288 289 290 287 284 286 285 285 287 289 291 293 293 293 294 295 294 295 295 296 296 297 297 297 297
320 321 321 321 320 320 320 320 319 316 301 300 297 294 296 299 297 297 297 291 290 294 293 294 293 294 296 298 297 298 296 294 294 295 299 299 294 294 291 290 288 285 286 287 289 286 284 284 288 291 289 288 286 282 284 284 284 283 283 282 283 285 283 284 285 282 284 285 286 287 285 287 290 292 292 294 293 294 295 295 295 296 295 296 297 296 296 296
320 320 320 320 321 321 320 319 318 307 300 297 298 299 299 295 296 298 296 291 291 294 295 295 295 294 293 295 297 299 295 292 293 292 298 297 294 291 291 289 286 285 288 288 289 288 288 286 287 289 287 287 287 285 285 284 286 285 285 284 284 284 286 285 285 283 284 285 283 284 286 289 289 288 288 289 290 291 293 293 294 295 296 297 297 296 299 296
320 320 320 320 320 320 319 319 303 302 299 300 298 300 295 295 296 298 295 292 288 289 294 294 293 293 294 298 297 295 292 292 291 292 298 298 291 291 289 288 287 287 287 288 287 286 286 287 285 285 285 285 285 284 284 286 285 285 283 286 287 288 286 285 285 284 281 283 281 283 284 285 285 286 286 287 286 288 289 292 293 294 295 295 294 295 294 294
320 319 320 320 320 320 321 309 303 301 303 300 303 299 295 294 294 296 295 286 285 288 292 291 297 294 298 293 296 293 293 291 292 291 297 296 298 293 290 289 289 287 286 286 286 285 286 287 288 288 285 284 284 284 284 286 285 283 284 285 287 286 285 284 283 284 278 278 283 282 280 281 283 287 287 286 287 290 290 290 294 295 293 292 293 294 293 293
320 319 320 320 320 320 314 306 307 306 307 305 302 299 297 296 296 298 291 285 284 290 289 294 294 293 296 292 292 293 287 286 293 294 295 297 296 295 290 287 287 286 286 285 284 284 285 285 286 285 284 283 283 282 285 286 284 282 282 282 284 283 283 284 283 283 282 281 283 283 284 280 283 285 288 288 288 289 291 292 293 293 292 292 293 294 292 294
319 320 320 320 320 319 315 311 310 309 310 305 301 299 299 298 298 298 293 282 281 292 289 290 293 298 296 292 290 291 290 288 287 292 293 294 295 292 290 284 288 286 285 286 284 285 286 284 284 284 284 282 284 288 284 288 285 282 283 283 283 283 283 282 283 281 280 280 279 281 284 280 280 286 282 286 287 289 289 291 293 294 292 292 293 293 292 293
317 318 318 319 320 320 315 314 312 311 307 301 301 301 300 299 296 294 286 280 292 286 300 291 300 295 290 293 290 285 289 287 287 289 291 293 294 291 288 285 285 283 284 287 288 285 284 286 285 286 284 283 285 282 284 287 285 284 283 282 281 281 281 282 280 282 278 277 278 280 283 280 283 288 284 282 286 286 288 292 293 292 292 292 294 294 292 292
314 317 319 319 318 315 312 312 311 309 304 303 302 303 303 303 302 291 286 280 294 288 291 293 293 289 287 286 286 287 290 287 287 287 290 291 292 291 290 286 285 286 287 286 284 285 286 288 286 285 286 287 284 283 283 287 285 283 284 285 282 280 279 278 277 278 276 274 280 282 283 284 281 286 285 285 287 288 290 289 290 290 290 292 291 291 292 292
313 314 317 318 314 314 313 309 311 306 305 304 305 306 306 303 293 286 282 289 293 294 292 290 288 288 287 287 286 287 288 284 288 288 288 290 290 287 287 289 286 281 280 282 283 286 286 285 286 285 287 285 284 284 283 283 282 286 283 281 281 283 277 276 269 275 275 276 281 282 283 284 280 283 284 284 283 282 286 288 289 290 291 292 290 290 291 290
312 313 316 317 316 316 312 311 309 306 306 306 309 305 303 291 292 285 285 299 290 294 289 288 286 285 286 288 287 285 288 289 286 288 286 284 284 286 285 283 283 279 279 278 281 281 282 285 285 287 288 289 287 287 283 285 286 285 283 285 279 274 272 270 272 271 272 279 279 280 282 279 281 286 286 287 288 287 285 289 289 290 290 292 289 289 290 290
311 314 314 315 315 313 313 310 308 307 307 308 306 305 295 287 281 289 287 290 290 293 292 291 289 290 290 290 290 289 289 290 289 288 287 287 286 286 284 286 284 286 283 281 279 282 284 281 283 286 288 288 288 286 282 283 284 284 284 281 278 273 271 268 268 267 270 276 277 279 281 280 283 283 290 292 295 293 290 288 288 289 291 291 290 290 289 290
310 313 311 312 315 315 311 310 309 310 309 307 304 298 291 285 284 293 288 290 293 292 292 290 290 289 289 293 292 288 291 291 288 289 289 286 285 284 286 286 285 288 287 281 282 280 280 285 285 285 286 287 289 290 289 286 283 285 285 286 283 280 275 275 274 278 280 280 277 277 277 276 275 284 284 290 288 283 283 286 286 287 287 288 287 288 289 290
310 312 312 313 313 315 310 311 310 312 310 306 299 295 287 286 288 285 286 286 287 290 295 292 292 290 291 288 288 289 293 291 289 288 288 288 288 284 285 286 288 288 286 285 285 279 284 286 286 287 287 288 288 290 287 285 285 285 283 284 280 282 283 281 284 280 283 277 274 273 278 278 284 285 287 284 284 289 287 288 287 288 286 286 288 289 290 291
308 306 311 310 311 314 311 311 311 312 309 303 295 288 288 289 285 287 290 292 291 291 291 293 290 288 286 285 286 287 292 291 290 288 286 287 287 287 287 286 287 290 288 286 286 283 284 281 284 286 285 287 287 286 288 288 281 283 284 282 285 286 286 282 282 284 280 278 279 282 280 285 287 290 291 291 288 287 284 287 285 287 286 286 288 289 289 289
300 304 302 306 308 313 312 312 312 310 307 301 293 288 293 290 293 287 296 293 293 291 292 289 289 289 286 284 285 283 288 290 287 288 286 287 287 288 285 286 288 290 292 292 286 289 285 287 289 285 286 286 283 285 285 283 286 284 280 284 286 286 286 283 278 277 278 277 280 286 283 284 284 282 285 286 286 287 286 285 284 285 286 286 287 288 287 286
299 300 302 302 307 313 312 312 312 308 303 298 291 294 292 291 293 297 291 291 292 293 291 289 290 293 286 288 286 284 287 287 286 286 283 288 288 289 284 286 289 291 292 293 289 287 290 283 289 286 287 286 284 287 286 286 287 286 284 288 285 281 280 281 277 275 276 276 278 281 284 284 285 286 288 288 289 288 289 286 286 287 286 285 285 285 285 285
298 298 294 302 307 313 312 313 311 305 299 292 291 291 295 296 293 292 293 295 296 294 289 290 290 290 290 285 286 285 286 286 286 284 285 287 285 290 290 289 291 288 288 291 288 286 287 284 285 285 286 286 284 284 278 283 287 286 288 285 286 285 283 280 282 279 281 277 279 279 284 281 289 289 288 288 288 290 289 286 286 285 284 283 283 284 284 284
292 292 290 303 311 313 312 312 306 302 297 289 292 292 293 290 294 293 293 296 294 294 291 292 291 290 291 291 290 290 287 288 287 287 288 289 289 293 289 292 288 289 288 289 287 289 285 287 281 288 284 287 283 284 281 284 282 283 284 283 285 283 285 284 283 281 281 279 279 278 278 284 290 292 290 289 288 287 286 285 284 283 283 283 283 283 283 283
297 291 290 309 311 313 312 307 299 294 293 295 297 294 294 293 292 292 294 295 295 297 294 291 289 290 290 288 289 290 288 287 287 288 287 287 289 287 291 293 291 290 289 289 288 286 283 284 282 286 286 285 286 286 286 285 287 284 285 284 286 283 281 280 278 286 282 281 277 279 277 285 292 296 294 286 284 284 284 284 283 282 282 282 282 283 283 283
294 284 291 309 312 312 306 296 296 296 293 292 293 295 293 301 294 295 293 293 294 293 294 293 292 291 290 291 292 289 287 285 288 287 287 289 291 292 292 292 291 292 291 287 288 288 288 282 283 282 285 287 289 288 286 288 288 287 288 286 288 287 286 282 278 282 283 282 285 283 280 282 294 293 288 285 284 282 282 282 282 282 282 282 282 283 283 283
292 288 300 306 311 310 302 294 297 294 293 295 299 298 296 293 291 291 292 291 291 293 290 292 293 292 292 293 290 290 291 285 289 289 288 286 290 291 290 290 291 289 290 286 288 285 289 279 279 283 286 288 291 288 285 285 287 286 286 286 285 285 287 285 285 285 283 284 282 281 279 283 290 289 285 283 282 282 282 281 280 281 281 281 282 282 282 283
291 290 293 300 307 305 298 288 288 291 293 297 297 296 297 293 291 291 292 292 292 290 292 291 290 294 290 291 290 289 290 285 289 291 288 288 286 288 288 288 290 283 289 285 289 290 284 285 284 280 280 282 284 286 285 285 285 283 284 285 286 287 285 285 283 278 276 279 283 280 275 282 290 289 286 283 282 280 280 280 281 280 281 281 281 282 282 282
286 287 289 291 298 301 292 295 290 289 292 293 294 292 293 293 293 295 294 292 294 292 291 290 293 289 288 288 287 286 286 289 287 286 287 286 287 287 285 288 289 286 287 289 291 290 286 285 284 278 276 274 274 275 276 276 280 283 282 283 285 286 285 284 280 282 279 282 283 279 279 286 289 291 289 283 282 281 280 280 281 281 280 280 281 282 282 282
279 274 281 288 295 295 294 295 294 293 289 289 289 291 293 290 291 291 294 293 296 293 293 292 287 290 287 287 285 286 287 286 285 284 285 283 283 285 285 285 286 286 290 291 288 288 284 284 284 284 282 280 282 283 285 285 283 283 284 285 285 286 286 284 284 281 278 282 281 283 284 284 286 289 284 280 280 280 280 280 279 280 280 281 281 281 282 281
280 278 280 271 285 288 288 292 290 292 289 292 286 291 288 290 290 290 292 288 290 292 291 291 289 289 287 288 286 287 287 286 285 284 285 286 285 283 284 283 284 286 290 288 287 283 281 281 284 284 284 284 286 285 285 284 282 284 284 284 285 285 285 284 282 279 286 281 276 285 286 283 284 288 284 279 279 279 280 280 281 280 280 281 281 281 283 281
277 278 283 285 282 277 282 284 286 286 288 289 286 290 287 288 288 286 288 290 288 288 289 288 291 292 290 288 286 284 286 286 285 284 285 281 282 281 283 284 281 285 284 282 285 285 283 281 284 285 283 285 283 283 283 283 283 283 283 283 282 284 284 281 281 283 283 279 277 283 284 282 284 283 279 278 278 278 279 279 281 281 280 281 280 279 279 280
281 281 280 285 280 282 283 285 285 285 284 286 286 288 286 287 286 288 287 287 289 286 290 283 286 283 283 283 284 283 285 281 280 282 280 280 279 281 280 282 283 282 281 279 282 283 281 277 282 280 278 281 282 282 283 281 281 281 281 282 283 282 281 281 280 282 281 280 281 282 282 282 284 279 280 279 280 279 279 281 281 280 279 280 279 279 279 279
279 280 278 283 282 281 282 282 283 283 281 284 283 284 286 285 285 285 284 286 283 285 287 285 280 280 282 283 283 282 282 283 283 281 280 279 280 283 278 281 281 281 281 278 279 279 284 278 284 279 278 278 281 282 281 280 280 278 280 280 280 280 279 279 279 280 280 279 281 281 280 280 280 279 279 281 279 281 280 279 279 279 279 279 279 279 279 279
285 286 286 280 277 277 280 279 280 281 280 282 281 281 283 281 282 282 280 287 286 285 283 280 283 281 283 283 282 282 283 282 282 282 282 282 278 283 279 278 282 277 280 277 281 279 282 275 280 276 275 274 280 279 279 279 278 277 277 278 278 277 275 277 277 279 278 277 279 279 277 278 277 279 279 280 280 278 278 278 279 278 279 279 278 279 278 279
282 281 284 282 274 281 279 280 276 277 273 276 281 282 283 280 279 281 281 285 283 283 282 281 282 281 280 282 281 283 283 283 283 284 285 284 284 283 283 282 282 280 279 279 283 278 279 277 275 276 273 272 277 278 276 275 274 272 273 277 278 278 279 279 280 281 280 281 277 275 276 276 275 280 278 277 279 278 279 279 279 279 279 280 279 280 280 280
Wind_Speed
13 14 14 14 14 14 13 13 13 13 12 13 12 12 12 12 12 12 12 12 12 12 12 12 12 12 12 11 10 8 8 1 1 0 1 8 5 6 4 4 11 13 10 6 5 6 1 2 3 4 2 2 2 1 1 2 1 1 2 4 1 5 4 7 7 11 2 1 4 3 3 1 6 2 1 1 1 2 5 7 6 4 10 7 3 1 0 4
13 13 13 13 13 14 14 13 13 13 13 12 13 13 13 12 13 13 13 13 12 12 12 12 12 12 12 11 10 7 4 0 1 1 12 2 1 5 3 9 11 12 10 5 7 4 6 0 0 2 3 1 2 0 1 1 1 3 2 2 6 5 7 9 7 8 2 8 4 3 2 2 8 1 2 1 3 2 7 9 2 6 11 9 7 5 4 6
12 12 12 13 13 13 13 13 13 13 13 13 13 13 13 13 13 13 13 13 13 13 12 12 12 12 12 11 9 5 1 2 1 2 3 1 2 5 6 11 13 12 5 4 4 7 3 8 5 4 2 2 6 1 2 0 1 2 5 4 7 8 5 7 4 7 11 2 5 7 4 1 4 1 0 3 6 4 9 12 7 7 13 11 7 5 7 6
12 12 12 13 13 13 13 13 13 13 14 14 13 14 14 14 14 14 14 13 13 13 13 12 12 12 11 11 9 1 1 0 1 2 1 4 4 6 8 11 10 7 8 7 7 6 5 9 6 3 1 2 3 1 1 2 2 1 2 5 6 4 2 6 11 11 8 2 3 3 3 6 4 7 3 2 3 9 13 13 14 17 14 12 7 8 6 8
12 12 13 13 13 13 14 14 13 14 14 14 14 14 15 14 15 14 14 14 13 13 13 13 12 12 12 11 6 2 1 4 3 1 2 3 3 9 10 11 9 3 4 9 10 6 6 6 3 3 2 2 1 1 3 0 1 4 9 5 6 2 3 7 9 6 4 2 4 3 5 9 2 0 4 5 8 11 10 10 9 16 14 11 10 8 6 8
11 12 12 13 13 14 14 14 14 14 14 14 14 14 14 15 15 15 14 14 14 14 13 13 12 13 12 10 1 1 4 2 1 1 3 4 6 9 10 10 9 10 11 5 4 5 7 2 4 1 0 1 4 5 1 2 1 5 3 6 7 7 5 2 3 5 5 1 3 2 5 5 3 6 5 9 12 16 16 14 14 12 10 8 4 3 7 9
10 11 12 13 13 13 14 13 14 14 13 14 14 14 14 15 15 14 14 15 14 13 13 13 12 12 13 3 0 1 3 6 2 6 5 6 7 10 10 9 10 8 7 5 5 4 1 4 2 2 3 1 3 4 4 3 1 2 8 1 7 5 12 6 4 6 4 5 8 4 5 9 8 11 2 9 14 19 20 17 14 11 5 4 5 8 11 12
8 8 8 10 13 13 14 14 14 14 14 14 14 15 15 15 14 14 14 14 13 13 12 13 12 11 11 1 1 1 1 5 9 2 7 9 9 10 10 5 6 5 6 8 9 5 5 6 6 3 1 5 3 6 1 1 1 4 7 4 5 1 7 6 5 6 6 10 8 3 7 19 14 8 2 10 13 16 21 18 9 10 7 6 9 13 11 10
6 7 8 8 10 12 13 14 14 14 14 15 15 16 16 16 15 15 14 13 13 12 11 11 11 10 4 1 3 2 5 7 5 7 8 9 8 9 10 4 2 6 3 3 2 8 6 6 2 7 7 2 2 3 2 3 8 8 13 1 4 4 6 5 4 5 8 6 4 1 14 18 12 4 14 22 17 20 20 14 10 7 9 12 13 15 12 12
8 8 8 8 8 11 13 14 14 14 15 15 16 16 16 17 16 16 16 14 13 12 12 10 10 9 3 1 1 4 6 3 2 5 7 10 8 9 4 3 7 7 6 2 4 6 7 6 9 5 4 1 6 4 2 6 6 4 2 4 6 8 7 5 8 6 5 6 5 7 12 16 3 4 12 6 12 12 10 12 7 6 11 13 10 11 10 11
9 10 9 8 9 11 13 14 15 14 15 16 16 16 16 17 17 17 17 16 14 12 10 8 7 5 1 2 3 11 2 4 1 3 7 8 10 9 7 7 6 6 6 2 5 8 3 7 4 5 1 5 4 2 2 5 2 3 1 5 8 6 8 8 4 12 1 8 10 10 14 10 6 2 16 21 3 4 4 9 10 8 11 12 11 10 9 9
9 10 11 11 10 12 13 14 14 15 16 16 16 17 17 17 18 18 17 16 14 11 9 5 2 1 1 2 8 9 3 4 4 3 4 6 5 2 1 5 6 8 9 6 7 5 5 6 7 4 2 3 1 1 4 4 1 0 1 5 7 7 12 7 5 9 10 7 7 8 2 6 5 10 21 15 1 6 7 12 14 12 11 11 11 9 9 12
6 9 11 11 12 13 13 13 15 16 17 17 18 18 18 18 19 19 18 15 11 8 6 2 4 0 1 7 9 3 1 4 6 6 4 4 5 4 3 1 2 3 6 6 5 5 4 8 5 4 1 3 2 2 1 3 0 0 2 1 10 7 9 10 5 3 7 4 9 7 7 6 12 19 20 6 2 2 4 10 14 12 10 9 9 10 10 10
5 7 8 10 11 12 13 14 15 16 17 18 18 19 19 19 19 18 15 13 11 7 3 2 3 2 1 7 5 1 3 4 7 6 3 1 4 2 3 4 4 2 1 1 0 1 6 2 5 2 1 3 2 1 1 4 3 3 3 2 4 6 10 4 1 3 1 3 11 2 9 7 12 15 17 2 2 4 8 12 12 11 10 9 9 9 10 13
5 6 9 11 11 11 12 14 16 17 18 19 19 19 20 20 17 13 11 7 4 6 7 5 1 2 1 8 2 1 8 2 3 3 5 6 4 2 1 2 4 4 3 3 2 2 5 6 5 1 2 0 0 2 6 2 3 1 3 5 2 7 6 13 4 7 10 1 2 4 9 13 12 15 15 2 3 1 6 10 13 12 11 11 9 10 11 15
4 8 8 10 11 12 12 14 16 18 19 20 20 21 19 16 9 8 5 2 4 8 6 0 1 2 2 8 1 6 1 1 3 1 0 1 5 2 3 4 2 3 2 4 2 4 3 4 2 3 0 1 2 3 2 5 4 3 6 6 9 3 7 9 10 3 8 2 1 11 11 2 9 14 13 5 2 3 6 13 16 17 16 15 13 12 12 14
6 7 6 7 10 11 12 14 15 18 20 20 22 19 14 7 2 6 8 8 4 3 1 1 0 0 1 3 2 2 4 1 2 2 2 1 2 7 6 4 1 4 5 4 3 3 4 2 2 1 4 2 3 4 2 2 7 7 1 7 3 8 3 5 9 9 1 6 4 6 7 12 14 10 11 14 11 9 11 17 19 17 16 17 14 13 13 13
8 8 6 6 9 10 10 13 15 17 19 19 19 14 8 6 2 2 5 5 2 2 0 1 1 1 9 2 6 3 1 1 3 2 3 2 4 6 4 2 1 5 4 2 3 3 2 1 3 6 1 0 2 3 5 10 10 7 4 6 8 3 7 12 2 4 4 2 4 2 11 16 16 14 14 16 14 14 18 18 17 18 18 17 15 14 14 13
8 7 6 6 7 8 11 13 16 18 19 22 14 8 1 4 2 2 3 1 1 1 1 1 2 4 4 1 5 4 0 0 2 1 0 4 1 3 4 4 5 8 2 2 2 3 2 4 4 2 7 7 9 11 13 16 9 9 5 7 3 7 6 5 10 8 5 12 9 8 17 17 11 13 14 14 10 12 19 20 17 17 17 15 14 14 14 13
6 6 7 8 6 9 9 13 15 17 18 14 7 4 2 4 4 1 4 1 2 5 2 4 6 3 7 8 3 0 1 1 2 2 2 1 7 3 4 2 3 5 6 6 1 4 2 7 8 9 13 14 11 12 17 13 2 1 1 2 9 10 10 7 10 10 1 5 12 18 19 17 12 11 14 15 12 12 17 20 21 19 15 14 15 15 16 14
8 7 7 5 6 5 9 12 14 15 18 5 3 3 3 1 2 4 5 9 7 3 5 7 13 10 11 1 1 1 1 1 1 1 1 2 1 8 3 3 3 2 2 3 7 1 3 7 8 13 16 10 7 5 4 7 5 5 7 6 11 3 15 10 10 3 0 2 3 4 17 20 16 12 14 16 15 18 21 21 19 21 19 16 19 19 16 10
8 8 6 6 4 5 8 10 13 15 9 0 5 4 1 0 0 2 1 7 4 8 8 14 1 5 6 10 4 3 5 2 2 1 1 2 3 6 2 5 4 10 1 2 1 1 4 9 12 16 6 4 4 2 1 6 7 7 9 6 7 8 11 12 13 9 5 2 11 7 15 16 15 16 18 19 22 18 14 9 17 19 20 18 17 15 9 8
9 8 7 5 5 5 6 8 11 9 4 5 3 2 0 0 0 0 1 1 8 3 3 8 6 11 12 4 0 4 6 10 11 2 5 4 2 4 5 4 4 1 2 4 10 4 6 4 15 15 2 4 2 4 2 0 2 6 5 3 11 2 4 9 1 2 1 1 11 11 20 19 13 20 21 19 13 13 12 13 17 19 18 23 17 7 9 9
9 8 7 7 5 4 5 7 8 4 4 2 3 1 1 2 3 2 1 3 5 5 8 4 1 1 5 3 3 7 7 3 1 4 3 5 7 3 4 5 4 3 9 10 12 12 13 2 4 5 5 6 9 3 1 3 12 6 9 5 8 9 11 9 6 6 7 5 2 9 13 14 7 5 4 6 4 7 16 11 13 18 22 11 6 12 2 5
9 8 8 7 5 4 5 6 4 0 2 0 0 1 2 2 2 3 1 5 1 5 1 1 3 2 3 1 1 4 1 0 5 1 3 5 6 2 3 1 4 9 6 9 8 8 9 4 3 4 4 6 6 5 6 8 14 6 4 11 17 13 11 9 9 8 6 7 5 5 12 4 2 1 5 6 3 4 3 4 16 22 7 4 6 6 6 4
9 9 9 7 6 4 3 2 0 3 1 0 1 1 2 2 2 1 1 1 7 3 3 2 1 0 1 1 1 3 4 3 1 2 1 2 1 2 2 1 2 6 6 3 7 5 5 2 5 7 5 5 5 6 8 9 12 4 8 13 13 10 8 7 10 4 5 2 2 4 3 17 3 3 3 5 5 10 7 12 18 13 4 4 5 2 4 4
8 8 8 8 7 4 1 1 1 2 2 1 1 3 2 2 1 1 2 3 4 2 2 1 0 0 0 0 0 1 2 2 2 2 1 3 2 0 2 4 1 1 1 2 3 6 2 2 1 2 4 4 4 6 8 12 6 8 2 5 6 6 7 6 2 5 7 1 4 3 4 5 21 2 6 3 2 10 13 14 16 7 4 5 7 2 3 3
6 6 6 7 8 8 1 2 2 1 1 1 3 3 3 3 2 0 1 5 3 1 1 1 0 1 1 1 5 1 1 1 1 0 0 2 1 2 1 3 6 6 3 3 11 1 6 2 4 3 2 4 8 10 3 11 8 5 1 6 3 5 5 2 4 5 2 5 8 1 1 3 10 3 3 2 3 11 13 15 14 3 4 5 9 1 7 3
5 1 4 5 8 8 2 1 2 2 1 4 4 4 3 3 1 2 1 3 1 2 0 2 3 1 2 1 2 1 1 1 0 1 3 1 3 1 1 4 4 3 2 6 10 1 2 1 8 9 7 8 8 2 10 11 6 3 4 7 6 6 5 2 3 2 2 1 9 7 6 4 19 2 3 5 1 7 11 13 12 4 7 7 9 4 7 0
8 6 0 6 5 3 1 2 3 1 5 5 4 2 1 0 1 1 1 6 2 2 1 1 1 2 1 2 1 3 1 1 2 1 3 2 3 2 1 2 2 1 4 1 4 6 1 3 5 4 8 6 4 0 3 8 3 4 4 3 3 6 3 3 5 2 2 5 8 13 12 7 12 4 9 7 7 7 6 4 7 4 5 5 9 5 5 2
7 5 3 10 4 4 5 2 2 5 5 5 5 2 1 2 2 2 9 2 2 1 0 2 1 4 2 1 1 1 1 1 1 1 1 1 1 3 2 1 3 2 2 2 6 4 0 1 0 4 3 4 4 3 4 1 2 3 1 2 3 2 6 3 4 3 1 10 3 12 14 12 12 2 5 6 6 6 4 5 5 5 7 6 3 7 4 3
6 4 2 6 1 4 4 2 4 6 5 4 2 3 0 2 1 10 4 0 1 2 2 1 0 2 1 1 2 1 0 1 0 0 1 0 2 3 3 5 2 1 4 0 5 3 2 9 3 4 3 7 2 1 2 3 1 3 3 1 2 5 6 2 2 1 5 10 1 1 2 3 18 6 3 9 7 8 8 7 6 4 7 9 5 8 3 5
7 2 2 3 1 2 1 3 7 7 6 2 4 1 2 2 8 2 1 1 3 2 1 2 0 0 1 0 2 0 0 0 0 0 3 0 1 4 4 4 3 2 5 2 2 5 8 2 1 5 2 4 6 6 1 2 4 6 6 4 4 2 3 4 4 2 6 6 4 3 2 10 4 4 10 15 19 8 4 8 9 8 9 7 7 5 6 6
8 2 1 1 3 1 3 7 7 8 5 2 4 3 3 5 6 3 3 3 4 1 2 1 1 1 1 3 2 4 2 2 5 2 2 1 2 1 3 4 5 2 2 2 3 1 8 9 4 4 3 4 8 10 12 4 8 11 2 9 8 7 4 5 4 8 7 4 2 3 1 8 1 4 3 9 3 5 2 3 4 6 7 8 3 4 3 9
9 2 1 0 1 2 7 6 9 6 6 5 2 5 7 11 1 2 2 2 3 2 5 0 2 2 4 0 2 3 5 2 2 4 2 3 4 3 3 3 3 5 1 1 2 3 8 10 6 4 1 6 9 4 5 5 3 2 3 3 2 8 5 9 5 4 10 2 4 1 7 4 5 3 5 3 4 7 6 5 4 7 4 5 10 10 13 13
3 1 1 1 3 4 8 6 7 5 7 4 2 5 13 5 3 2 3 3 0 1 1 4 0 3 5 4 1 0 3 3 1 2 1 3 3 4 4 3 5 13 8 7 5 3 2 7 2 3 3 7 6 2 3 4 6 3 5 6 8 1 3 4 3 2 2 1 13 3 8 11 5 11 12 12 1 3 3 4 5 7 8 9 11 12 12 14
2 2 1 2 2 5 8 8 7 6 4 5 4 11 6 2 5 2 2 3 2 3 1 6 3 4 1 3 3 1 1 1 3 2 5 2 5 7 3 6 5 5 12 10 4 4 5 12 5 5 5 5 0 0 1 3 4 7 2 7 1 1 2 2 5 1 4 9 10 7 14 12 7 12 4 6 3 4 5 4 3 8 11 13 10 12 14 13
1 1 2 2 4 7 9 9 9 5 4 5 11 14 2 5 1 6 2 3 1 0 3 4 5 3 4 6 5 4 1 4 2 3 4 5 5 5 3 2 5 9 10 1 5 3 6 9 8 4 6 1 1 1 4 0 1 5 5 1 2 4 2 2 5 4 5 9 6 6 14 14 10 14 5 8 7 7 7 7 13 15 14 13 13 13 12 12
0 1 3 2 2 8 8 9 9 8 4 7 10 12 4 10 3 3 7 5 1 1 4 4 6 2 2 3 2 0 3 3 2 4 2 4 5 4 7 4 1 2 2 5 2 2 1 9 5 1 2 1 1 3 5 3 0 1 1 1 0 1 3 2 5 1 1 8 5 6 7 11 6 4 3 1 4 6 6 11 12 13 12 10 10 11 11 12
1 1 3 2 2 8 9 9 6 7 6 13 11 9 2 1 4 2 1 4 3 4 4 6 4 8 3 7 2 6 2 3 3 6 5 2 7 2 0 2 3 0 2 2 4 0 3 1 11 1 2 1 2 4 7 9 7 1 0 4 0 1 2 2 2 3 7 9 9 8 11 8 10 2 4 5 8 12 8 10 11 10 11 10 10 9 8 8
1 3 2 1 2 8 10 6 5 10 9 4 7 6 2 5 1 2 2 3 1 2 3 2 3 6 3 1 4 3 2 4 4 5 4 4 4 8 3 5 3 3 1 3 2 2 0 4 12 6 6 7 7 3 7 5 7 6 8 7 9 6 5 9 13 4 5 7 7 7 14 5 7 8 10 15 10 12 12 11 10 10 10 10 10 10 9 8
1 2 2 2 2 10 9 10 5 2 2 8 9 3 5 2 4 6 3 0 4 3 1 1 3 4 2 7 7 3 2 3 6 4 3 10 4 10 1 9 4 2 3 4 4 3 2 1 1 6 9 12 6 5 2 5 4 2 5 7 8 7 5 7 14 9 3 6 6 10 12 10 3 6 14 11 11 10 11 10 9 8 8 7 6 7 7 7
1 3 2 2 3 9 6 7 4 4 5 2 3 4 2 3 3 2 1 1 1 3 1 2 4 5 4 7 4 6 6 6 6 7 3 3 5 2 7 6 1 3 3 3 4 1 7 1 0 7 5 8 12 1 1 1 2 2 3 4 3 8 9 10 10 5 9 7 7 7 9 2 4 11 14 11 10 10 9 11 9 7 8 7 7 7 7 7
2 2 4 3 5 2 7 8 8 9 6 6 6 7 2 2 1 2 3 2 3 1 3 1 1 5 4 2 2 5 2 6 4 13 7 2 3 2 8 8 4 2 1 4 2 3 1 3 1 4 3 3 5 2 2 2 2 0 2 3 2 4 3 6 2 4 3 6 12 11 14 3 3 3 8 14 10 8 9 7 7 6 6 7 8 8 7 8
1 1 2 5 3 1 5 1 3 5 8 8 6 11 9 4 5 9 6 5 1 4 1 3 3 1 1 2 0 0 2 8 4 3 3 1 2 2 7 6 5 4 2 2 1 1 3 4 4 9 8 8 7 8 7 2 2 3 2 3 3 0 5 5 9 3 11 5 13 9 10 7 3 6 12 13 6 10 7 6 5 5 4 5 7 8 10 10
0 1 1 2 2 1 2 1 1 3 2 6 8 9 8 9 4 3 8 5 9 4 5 4 1 1 2 3 4 5 6 4 7 2 2 1 1 2 2 4 6 2 1 6 5 1 1 1 3 7 10 12 10 7 1 0 2 5 5 7 10 7 3 5 7 9 10 8 10 7 10 12 14 12 9 9 9 10 6 6 5 5 5 4 4 5 6 8
0 3 1 1 2 2 2 3 2 3 2 3 3 0 7 9 7 2 3 0 2 1 1 4 2 1 2 5 5 6 7 6 6 4 6 8 1 0 4 4 4 6 2 1 3 3 0 2 6 8 9 9 8 8 7 2 6 4 4 5 5 6 6 9 10 12 8 12 18 6 7 8 5 8 6 5 6 4 6 5 4 2 2 1 3 2 3 4
2 2 3 2 2 3 2 6 3 3 5 2 3 2 3 1 1 0 3 1 1 1 1 3 0 4 4 5 3 3 2 3 2 5 1 2 2 2 1 2 3 5 4 1 1 3 2 5 1 7 6 2 4 7 8 7 3 4 4 7 9 8 9 11 13 9 8 9 12 11 15 18 15 7 2 1 1 4 4 4 5 3 3 2 2 3 4 4
3 1 0 2 3 2 1 2 3 2 5 0 2 2 6 7 10 3 1 4 2 2 0 5 4 4 3 3 2 3 5 8 7 2 3 3 1 3 3 2 1 5 6 3 3 0 1 4 4 2 1 4 7 6 6 9 10 10 7 9 8 12 15 15 15 13 15 17 18 18 20 23 15 2 3 3 1 1 4 4 4 3 6 4 5 5 4 5
2 1 1 2 2 1 1 0 0 2 2 2 3 6 5 6 13 6 1 1 3 4 1 5 3 2 2 3 2 2 2 4 7 11 1 4 3 2 2 3 3 5 4 2 1 5 2 6 3 1 3 5 6 6 7 8 8 14 13 13 14 17 18 16 15 18 18 18 17 21 19 17 4 2 1 1 2 4 4 5 4 5 5 5 6 7 6 6
1 2 1 2 2 1 2 2 1 2 3 3 5 3 3 3 5 2 2 1 2 2 3 3 2 4 2 2 1 1 1 5 4 3 4 2 3 1 3 3 5 5 6 2 2 4 3 4 4 3 7 7 6 9 9 10 10 11 14 17 21 20 17 13 15 11 10 14 11 11 10 7 3 2 2 2 4 4 6 7 6 4 4 5 7 8 8 8
2 1 3 3 1 2 3 0 1 1 4 2 1 2 0 1 1 1 0 3 7 8 6 4 2 2 2 3 3 4 4 3 3 5 5 6 7 6 6 7 6 4 3 0 3 3 2 1 3 6 10 11 11 9 8 5 9 15 15 21 19 16 16 16 13 11 10 4 9 10 8 3 5 4 3 4 2 6 5 7 7 9 7 5 8 9 8 8
Wind_Direction
25 24 22 20 20 18 16 15 14 12 10 9 6 5 5 5 1 360 359 357 353 353 349 344 347 343 342 342 340 343 346 98 56 17 170 240 209 215 169 110 132 140 144 101 98 106 49 31 112 344 43 56 318 89 278 44 74 55 122 117 242 208 158 205 187 192 213 221 275 309 174 9 298 323 267 54 306 236 285 265 269 285 253 227 235 153 314 137
21 20 18 17 15 14 12 9 9 7 5 3 2 360 359 358 358 356 357 355 355 351 349 345 341 343 342 338 342 343 15 63 214 277 225 184 103 144 166 142 136 147 127 108 140 130 124 247 329 54 100 105 329 56 3 218 86 106 117 122 233 191 237 166 202 203 137 251 230 264 220 203 259 142 284 320 281 321 307 269 198 256 267 269 259 218 142 149
15 14 14 12 11 10 8 6 3 1 1 357 357 356 355 353 353 353 352 354 353 351 348 343 341 338 340 339 332 4 9 4 71 268 267 67 181 172 152 152 152 159 144 153 191 143 148 191 172 104 12 112 4 179 27 204 121 221 125 222 243 215 229 230 199 219 207 250 282 295 295 168 249 140 349 227 278 327 262 273 284 230 253 252 245 213 202 173
10 9 8 8 6 5 3 1 359 357 356 356 351 353 352 350 349 351 350 350 349 348 346 344 338 337 335 333 337 352 63 339 283 223 267 252 217 175 158 154 145 120 90 60 138 111 103 91 75 94 77 84 307 20 158 237 126 262 117 202 228 211 193 246 211 235 235 178 253 250 305 314 257 216 155 193 335 265 260 248 239 262 255 260 232 228 191 200
3 5 5 3 3 1 357 357 355 355 353 351 350 348 348 346 345 346 348 346 346 345 345 341 338 334 331 331 342 100 10 44 274 238 243 213 158 166 153 144 129 97 102 140 85 64 85 116 103 44 91 214 342 15 246 267 179 115 212 218 203 116 229 244 223 218 205 204 217 295 321 265 62 78 206 162 227 257 253 261 214 240 250 251 260 231 185 198
357 360 2 1 358 358 355 352 354 354 348 347 346 344 343 342 342 342 342 343 341 342 342 343 338 332 328 324 45 99 70 332 222 261 145 142 150 147 135 131 125 115 114 77 103 123 105 41 91 138 18 87 202 178 264 176 146 237 279 254 230 207 239 240 211 216 165 184 178 282 239 330 227 274 179 184 205 250 251 257 259 244 246 243 253 155 197 208
350 354 1 359 357 354 352 350 349 348 345 342 341 339 338 339 335 338 337 338 338 338 342 341 338 332 326 353 103 80 166 253 304 243 143 142 135 129 123 119 119 117 110 99 123 129 99 109 117 181 99 24 278 199 248 192 8 208 259 211 274 195 229 215 239 130 190 193 242 205 329 289 271 289 175 196 225 242 259 254 255 263 257 242 244 213 221 211
334 347 355 359 352 351 348 347 346 343 341 339 336 335 335 333 334 331 333 333 334 334 338 340 338 329 347 53 286 341 51 244 244 274 146 119 113 119 108 84 108 115 129 159 152 138 134 145 179 134 157 179 221 163 194 129 139 207 265 210 265 167 241 256 248 253 261 252 259 310 284 265 263 256 352 238 227 244 256 260 260 269 270 260 249 255 238 233
326 348 352 352 351 345 345 345 344 341 337 335 336 333 332 331 330 328 327 326 329 327 332 339 333 333 321 79 115 319 258 238 222 185 137 122 129 124 135 134 135 140 139 107 164 163 134 234 147 181 240 192 184 175 201 167 284 204 231 207 277 268 274 261 293 237 232 267 166 189 256 266 281 278 256 255 236 241 252 276 268 272 270 257 249 250 248 240
341 348 343 349 346 339 341 344 341 338 335 334 332 331 328 328 324 324 320 321 318 323 320 334 336 324 36 82 40 273 262 188 29 132 131 128 129 132 81 137 137 127 126 186 86 126 189 204 179 204 123 132 145 206 142 156 237 170 221 247 260 273 307 282 228 261 229 240 151 195 254 267 295 47 283 190 234 232 265 265 276 243 251 253 247 252 248 242
335 338 341 346 341 337 341 341 336 335 333 332 330 327 327 323 321 318 316 311 311 307 315 317 353 353 118 102 199 255 222 75 32 108 127 131 125 141 194 161 161 139 118 126 191 190 177 141 145 97 85 227 132 247 157 221 142 67 198 310 285 290 265 238 262 260 106 279 184 201 250 276 294 140 248 262 140 175 219 269 273 248 253 259 253 251 253 241
325 331 340 342 341 342 338 336 334 332 330 330 328 325 324 321 318 315 311 308 302 299 299 308 1 91 81 113 218 232 330 135 122 107 117 129 119 155 10 174 167 161 151 169 228 232 161 162 131 134 222 129 256 125 256 236 32 115 27 306 290 337 315 256 209 249 161 244 158 169 227 299 264 223 249 255 155 235 249 265 271 263 254 261 267 257 251 242
326 338 340 341 342 338 337 334 333 331 328 328 326 323 322 320 316 312 307 303 297 292 277 270 102 356 86 299 239 235 55 125 117 108 72 71 103 69 69 73 129 139 172 150 207 220 166 142 136 161 221 126 171 230 126 82 1 28 47 158 319 328 296 289 175 31 149 244 150 147 275 220 248 246 257 281 200 149 232 257 261 267 264 258 263 261 260 253
323 326 341 343 338 337 335 334 331 328 327 325 323 322 320 317 316 310 303 293 292 283 324 185 112 109 105 243 264 212 142 116 108 107 140 176 106 357 38 30 71 61 338 118 74 150 130 121 122 143 101 172 264 260 51 345 17 235 248 99 247 340 266 290 91 139 193 202 172 131 248 248 264 269 268 270 202 198 251 258 263 265 268 262 261 265 265 269
324 356 347 337 337 334 334 332 329 326 325 324 322 321 320 317 318 319 310 298 288 228 148 82 55 80 92 267 217 355 150 130 129 219 188 137 123 63 19 50 52 32 63 91 127 84 124 104 95 119 251 286 39 328 291 22 356 323 348 265 317 201 282 301 283 179 238 335 185 126 259 253 252 265 273 310 60 132 244 266 268 269 272 270 265 264 266 266
18 340 333 334 334 334 333 330 328 325 323 322 322 320 317 317 330 348 1 135 79 130 133 71 50 106 40 297 239 139 83 185 254 308 153 112 158 159 156 117 118 36 38 20 69 107 48 93 104 190 178 358 118 107 27 9 334 341 205 262 252 217 263 339 290 194 219 145 278 184 248 297 280 255 270 292 246 199 250 269 274 277 274 272 267 264 263 274
359 325 328 330 331 334 331 329 326 323 320 321 320 316 317 328 33 54 47 66 53 59 117 176 118 178 194 237 125 293 246 235 97 43 54 21 123 143 112 80 85 73 68 71 32 69 352 89 294 31 32 170 149 107 312 3 277 265 163 234 200 244 293 271 306 295 123 171 208 244 249 239 260 278 298 305 298 287 274 272 277 276 275 273 272 265 264 265
324 316 302 296 324 329 326 323 325 323 321 319 320 311 310 317 265 91 75 56 50 103 60 170 121 20 280 356 266 247 332 304 40 156 62 302 127 128 106 114 66 103 93 48 357 123 302 138 39 196 346 247 120 127 152 240 220 232 224 257 277 263 236 253 323 261 20 163 222 313 251 259 265 282 281 276 285 291 280 273 270 277 275 275 274 273 268 261
282 272 277 306 310 323 314 326 324 326 327 320 321 311 56 51 39 114 76 15 62 355 42 244 114 151 213 246 304 352 76 183 143 85 214 111 36 98 69 81 105 125 139 107 263 137 353 65 36 67 233 218 218 191 200 230 228 245 239 252 267 276 242 224 235 273 272 288 293 249 262 269 270 271 275 275 265 268 278 284 281 271 270 273 273 273 270 262
281 292 306 304 308 302 320 327 324 328 330 330 358 6 19 19 6 358 342 25 190 207 246 215 226 265 319 285 234 290 274 348 143 323 142 276 121 96 35 91 34 55 118 187 172 199 127 157 170 196 221 223 223 203 216 235 6 72 158 241 257 264 278 264 272 265 129 302 248 265 273 275 268 261 272 276 276 265 270 273 274 275 281 278 275 269 268 267
256 259 268 278 290 318 322 325 326 326 329 327 325 57 59 179 38 313 312 261 252 250 242 241 204 213 232 249 281 147 220 280 69 146 192 128 138 123 216 91 141 178 239 169 148 291 84 188 214 218 225 225 239 236 250 282 286 277 272 264 270 236 275 259 281 289 87 216 281 244 278 275 276 271 268 272 267 262 253 265 277 281 277 276 270 271 270 282
246 249 250 256 268 304 316 328 327 327 331 89 53 74 139 229 177 235 98 308 311 244 232 244 359 280 277 257 205 153 80 322 268 206 251 146 194 155 269 136 158 199 116 110 25 111 192 205 221 231 223 79 49 90 136 202 238 250 242 267 298 264 265 271 257 281 281 154 274 273 272 274 276 266 256 248 251 255 264 253 264 270 274 274 271 268 304 312
236 239 248 255 252 291 323 326 323 345 11 30 41 78 89 244 15 323 79 263 270 267 235 247 238 231 257 271 258 119 236 220 252 166 199 143 77 217 144 138 191 94 146 174 200 179 261 262 240 241 214 262 295 59 108 28 245 230 254 271 250 267 301 301 240 5 315 265 297 300 296 290 263 252 249 251 252 259 259 249 250 253 261 257 264 330 302 323
239 244 245 244 247 269 311 323 320 39 27 124 115 157 176 136 105 73 74 240 278 302 227 229 236 224 239 246 236 162 200 274 127 268 251 135 152 186 125 167 145 137 196 202 216 210 220 210 235 230 204 197 237 210 137 261 267 199 214 244 280 257 244 234 274 340 310 276 216 311 282 286 248 279 286 283 273 243 258 261 265 264 251 271 328 274 308 306
246 247 247 251 232 235 276 336 35 354 148 56 283 244 152 138 106 136 69 312 348 279 306 301 146 231 223 17 16 147 258 51 219 220 202 149 148 95 225 177 117 219 193 211 235 258 269 262 117 91 171 194 208 250 218 213 259 257 208 199 237 253 273 267 284 354 4 314 353 26 327 298 353 158 248 269 354 263 268 253 251 248 291 18 280 302 61 62
243 240 241 239 221 214 276 356 293 156 106 183 199 166 126 119 113 152 99 30 292 264 342 230 153 15 95 89 32 203 116 239 349 248 81 251 251 151 73 227 148 235 198 176 216 220 218 233 183 208 154 172 189 212 230 183 244 304 264 207 230 240 248 266 285 15 291 200 313 46 74 291 145 204 255 261 252 270 280 239 252 262 35 341 294 20 58 76
243 239 234 227 206 166 88 236 130 132 18 314 167 137 143 106 207 126 5 302 325 215 152 274 78 255 208 314 82 89 123 279 302 25 44 345 181 320 166 232 18 338 167 157 18 271 162 302 82 82 123 139 164 238 235 174 211 257 241 176 196 214 228 246 228 195 249 265 298 173 171 241 299 191 228 270 231 259 261 263 261 291 350 288 281 84 99 122
244 230 225 225 196 174 193 113 135 198 232 143 124 113 115 151 117 325 78 320 298 326 81 287 187 311 77 327 61 125 217 337 39 303 232 292 68 346 169 216 190 188 187 106 237 275 155 177 152 130 141 138 196 218 158 163 166 220 251 141 152 200 208 163 185 215 229 9 308 281 90 302 255 265 341 145 135 254 257 262 270 321 291 288 277 99 120 115
31 340 217 202 189 190 69 162 153 204 160 140 122 122 139 150 132 86 112 228 228 72 103 63 311 43 350 321 35 52 335 14 108 280 314 325 24 144 254 234 180 196 265 176 237 255 292 179 202 164 145 208 220 224 165 164 197 253 121 83 82 78 66 129 124 130 314 31 267 183 177 225 281 258 129 355 319 277 254 251 265 282 288 288 286 84 84 93
19 23 84 166 131 86 40 46 222 126 115 130 117 97 95 65 32 44 229 238 42 309 100 234 83 285 35 78 302 5 229 340 142 320 29 151 326 31 16 140 119 112 242 333 275 241 241 333 163 125 200 215 155 67 168 187 157 128 108 78 14 42 50 31 69 94 40 260 256 176 196 162 276 310 174 138 202 218 278 322 294 318 301 301 292 5 85 270
2 358 351 156 154 183 128 238 198 129 142 129 128 111 21 38 146 180 238 220 24 216 37 24 258 13 48 75 345 318 138 338 8 56 45 5 4 41 354 331 57 42 41 346 283 298 197 30 175 253 52 78 96 79 25 49 149 137 94 135 35 342 11 29 341 39 191 272 238 192 184 179 221 308 298 234 270 241 215 256 277 331 332 322 288 65 26 282
360 341 323 195 255 151 156 234 148 136 133 146 99 70 30 268 25 225 220 297 3 264 98 277 46 124 94 43 145 331 185 19 250 74 128 59 132 147 206 176 170 358 332 238 269 22 260 213 239 309 215 158 164 88 336 36 27 88 78 19 259 276 28 321 31 302 195 235 311 306 142 341 246 236 267 272 273 265 215 229 242 298 316 308 324 37 0 291
354 331 305 272 66 208 336 111 124 136 128 130 79 71 111 138 253 155 5 12 262 63 285 92 192 95 177 72 265 229 4 175 60 95 114 63 125 262 253 199 181 185 261 265 281 331 279 293 74 241 343 206 139 174 247 280 183 133 165 160 104 289 251 261 266 255 306 301 281 173 139 252 302 282 215 247 254 254 225 225 244 266 270 283 307 23 352 315
341 329 139 205 207 240 118 141 144 143 123 77 95 53 80 223 231 74 182 219 230 348 122 117 359 59 113 226 255 165 314 208 145 175 154 175 52 297 301 250 169 247 170 335 298 241 323 308 260 153 244 180 175 200 199 163 157 195 106 155 190 169 164 262 203 254 259 242 303 275 120 235 91 249 237 237 313 335 305 301 279 265 262 262 326 25 335 12
324 318 161 225 214 151 150 161 154 161 117 111 76 188 221 239 68 195 219 273 284 333 292 354 318 4 296 279 281 255 211 304 130 121 166 143 240 180 214 237 218 141 106 15 248 63 225 246 259 212 282 150 180 232 101 103 82 185 161 74 69 240 144 237 227 224 276 332 333 220 214 214 205 272 291 208 270 332 327 307 316 301 295 6 35 33 26 23
355 304 175 222 184 185 157 164 158 151 135 117 163 219 230 206 230 171 225 162 170 146 291 342 125 297 241 268 320 23 317 196 272 106 294 187 215 215 208 206 185 182 161 184 179 227 222 260 253 288 101 191 204 136 214 133 236 203 104 193 215 127 160 277 334 237 86 12 259 214 287 268 302 264 253 267 254 355 344 320 351 311 331 35 39 29 29 29
7 320 246 206 226 175 162 159 159 149 140 150 197 246 225 273 192 157 236 164 229 136 58 301 252 201 176 277 194 4 246 78 254 153 263 166 299 204 222 257 176 187 200 173 274 196 250 279 260 127 257 259 139 140 119 32 144 109 180 238 46 158 111 155 230 350 213 233 259 261 265 278 314 296 33 64 98 358 25 355 307 355 12 47 35 35 29 27
318 290 248 233 218 161 164 164 146 141 132 184 221 235 97 230 227 196 139 110 348 322 234 186 270 210 267 246 273 176 239 159 249 112 237 176 257 135 131 231 216 188 216 291 148 263 190 271 271 217 217 262 344 111 333 327 348 163 186 293 139 236 235 251 84 240 241 240 263 205 269 273 250 258 289 327 333 337 336 345 32 30 27 26 26 26 26 22
273 63 316 231 315 160 156 159 152 147 144 204 222 250 194 234 136 183 201 164 215 139 212 226 227 275 189 226 219 297 186 209 182 191 250 237 214 200 198 183 324 158 6 143 172 247 150 251 279 24 140 210 71 106 218 197 267 87 39 344 164 85 237 122 196 215 17 270 271 242 235 266 246 255 95 77 325 320 7 50 56 44 42 37 25 20 14 16
100 52 267 306 294 148 151 156 153 165 190 213 218 229 128 54 236 277 303 195 246 179 246 246 202 248 229 238 180 253 257 191 183 245 191 284 238 238 222 226 189 161 121 222 208 133 256 107 268 154 286 300 226 169 200 173 192 213 177 249 303 208 216 114 323 185 228 258 234 266 245 244 263 341 28 5 31 41 61 78 62 46 31 34 34 22 18 18
253 114 261 49 121 143 146 146 173 198 208 244 253 252 261 255 36 321 12 146 236 310 212 210 167 218 211 331 266 192 260 212 200 216 188 287 204 279 237 223 161 163 50 36 208 228 84 218 230 236 270 215 238 219 178 199 183 178 181 210 210 220 277 262 259 173 226 222 251 245 258 247 290 314 22 62 53 53 37 53 62 50 37 27 18 18 15 13
143 104 263 16 210 156 157 177 207 176 211 208 219 199 251 296 272 252 226 338 164 259 7 205 223 240 248 255 255 252 238 226 218 233 241 232 224 219 15 26 29 161 120 203 196 269 202 121 20 224 230 255 242 238 221 209 215 211 180 240 203 224 210 235 260 238 249 228 249 246 271 254 206 30 71 58 54 56 42 49 46 39 42 32 21 19 13 19
120 204 285 285 252 176 171 220 200 209 223 254 24 286 235 287 207 218 60 218 246 191 282 239 230 256 246 250 222 247 213 261 181 240 210 229 242 261 322 6 19 0 2 302 10 314 75 69 197 248 243 279 280 305 30 35 174 292 255 217 169 218 217 238 252 271 264 255 238 246 238 354 17 100 97 95 87 64 47 42 42 34 21 20 25 16 13 9
34 324 316 307 40 11 182 202 205 207 233 259 253 261 275 228 275 283 220 216 181 220 211 223 326 216 269 270 292 261 185 270 208 241 253 249 257 81 5 7 0 63 87 251 135 277 56 269 169 311 312 303 289 298 39 350 59 208 225 254 253 302 330 269 292 107 252 199 247 256 259 200 253 122 119 116 105 87 91 79 77 62 27 18 11 10 11 7
111 305 272 305 354 9 224 220 203 203 225 235 234 251 251 266 225 239 243 247 194 199 341 282 229 39 274 88 272 158 261 228 291 313 183 261 247 42 8 30 8 106 53 327 142 120 156 212 260 275 276 278 286 283 294 11 311 283 310 351 355 25 295 336 271 263 259 181 210 225 255 244 286 320 355 10 73 99 66 74 68 84 60 22 13 4 3 6
238 112 287 349 327 80 267 162 73 272 232 228 241 242 255 261 268 229 181 256 214 204 222 243 215 157 202 268 254 260 263 168 177 249 28 278 285 4 172 31 38 97 101 57 17 106 195 298 197 224 244 260 267 282 115 96 223 246 272 307 298 306 257 234 257 254 245 274 260 265 280 283 282 296 333 346 11 5 27 27 36 33 18 5 354 360 357 356
300 105 181 284 355 318 240 24 22 314 214 355 212 33 238 236 251 287 187 227 327 107 311 200 193 166 251 216 236 255 232 251 227 229 251 261 257 231 354 117 57 24 283 89 340 76 160 235 227 245 246 256 275 283 309 19 290 291 282 278 299 275 277 277 258 266 313 309 274 262 261 285 292 308 307 0 356 357 349 359 354 11 349 241 278 287 295 313
73 260 92 241 137 250 157 258 41 273 282 322 250 326 263 339 53 166 333 106 311 328 165 334 94 227 280 245 51 273 8 317 353 279 315 308 329 316 94 356 75 350 42 337 303 127 171 240 195 251 271 343 338 312 307 307 279 281 282 277 275 283 277 268 268 284 319 270 285 315 305 294 289 282 154 81 2 317 328 319 310 306 284 280 252 257 256 262
117 312 166 325 123 302 108 356 353 358 289 36 269 275 275 275 282 260 130 308 355 312 272 266 248 33 21 359 289 266 279 294 284 65 78 298 281 312 328 359 72 43 29 20 333 244 83 265 245 53 269 300 291 292 296 296 298 291 274 270 272 275 268 267 273 273 267 266 272 277 276 273 289 170 165 177 328 261 290 285 304 278 287 289 298 289 276 254
312 100 303 36 104 332 299 330 72 349 287 265 240 235 261 256 267 291 358 254 256 274 8 263 27 4 21 67 22 245 306 279 254 252 141 114 306 79 266 253 313 339 29 337 333 300 197 277 12 182 295 270 261 268 272 269 285 286 290 284 271 263 264 265 273 268 267 264 261 261 262 269 92 137 93 216 198 248 256 261 259 256 249 276 284 291 297 288
220 67 123 99 29 220 91 340 134 204 267 232 223 281 261 243 253 76 240 37 198 216 50 117 17 17 335 84 20 163 182 121 37 8 329 333 198 358 84 280 79 329 328 346 5 316 345 256 318 37 304 278 271 271 278 296 293 284 279 278 273 267 271 263 256 261 259 271 274 280 276 262 101 156 279 284 271 306 312 299 299 282 242 247 265 275 290 295
60 297 90 106 95 291 135 38 357 87 239 251 200 251 153 56 65 307 100 85 54 91 97 87 338 54 312 305 293 188 164 165 201 223 211 216 224 234 202 228 264 247 303 212 259 272 212 190 324 305 291 271 280 285 312 315 307 283 265 257 264 270 257 263 264 265 262 273 270 256 269 77 189 188 165 282 217 266 288 287 299 302 292 265 272 273 281 285